OneWeb SL0511

operational
NORAD ID: 54129 Int'l Des: 2022-138 Owner: ONEWEBN Country: UK Constellation: oneweb
LEOCIRCULARPOLARONEWEB_TYPE

Über OneWeb SL0511

Beschreibung wird geladen...

Live-Position

3D-Globus wird geladen...

Nächste Überflüge

Höhenverlauf

Altitude vs Time

uPlot chart will show altitude changes over time

Zweizeiliger Elementsatz

1 54129U 22138S 25308.14035628 .00000117 00000-0 26117-3 0 9993
2 54129 87.9245 349.7268 0001629 101.2719 258.8597 13.19726236147158
Epoch: 4. Nov. 2025 • Age: 13 hours

Aktueller Status

Höhe 1188.0 km
Geschwindigkeit 7.26 km/s
Subsatellitenpunkt 18.70°N, 63.16°E
Startdatum 22. Okt. 2022
Alter 3 years
Typ internet

Technische Details

Klassifizierung Payload
Masse 148.00 kg
Trockenmasse 140.00 kg
Gesamtmasse 148.00 kg
Länge 1.30 m
Durchmesser 1.00 m
Spannweite 5.00 m
Form Trapezoid+2 pan
Hersteller ONEWUS
Bus-Typ ARROW
Phasenstatus In Orbit
Besitzer/Staat ONEWEBN/UK

Große Konstellationen

Loading constellations...